Hourly Data Report for November 25, 2021

MIRAMICHI RCS
NEW BRUNSWICK
Current Station Operator: ECCC - MSC

47°00'34.000" N
65°27'54.000" W
33.00 m
8100989
71744
ACQ

Download Data

Hourly Data (November 2021)
Hourly Data Report for November 25, 2021
TIME
LST
Temp Definition
°C
Dew Point Definition
°C
Rel Hum Definition
%
Precip. Amount Definition
mm

Wind Dir Definition
10's deg

Wind Spd Definition
km/h
Visibility Definition
km
Stn Press Definition
kPa
Hmdx Definition


Wind Chill Definition


Weather Definition


00:00 -0.1 -7.1 59 0.0 32 4   100.81   -1 LegendNANA
01:00 -0.2 -7.1 60 0.0 31 7   100.75   -3 LegendNANA
02:00 0.3 -7.1 58 0.0 31 16   100.70     LegendNANA
03:00 0.4 -7.2 57 0.0 31 10   100.68     LegendNANA
04:00 0.4 -6.8 58 0.0 31 11   100.68     LegendNANA
05:00 0.8 -6.1 60 0.0 34 8   100.68     LegendNANA
06:00 0.8 -5.4 63 0.0 32 10   100.66     LegendNANA
07:00 0.7 -5.3 64 0.0 32 12   100.63     LegendNANA
08:00 0.8 -4.8 66 0.0 33 11   100.65     LegendNANA
09:00 1.2 -4.3 67 0.0 33 12   100.64     LegendNANA
10:00 2.0 -3.5 67 0.0 34 12   100.63     LegendNANA
11:00 3.4 -2.3 66 0.0 33 9   100.59     LegendNANA
12:00 3.7 -1.9 67 0.0 34 8   100.52     LegendNANA
13:00 4.1 -1.3 68 0.0 33 6   100.48     LegendNANA
14:00 4.2 -0.6 71 0.0 33 8   100.40     LegendNANA
15:00 5.0 0.2 71 0.0 34 5   100.38     LegendNANA
16:00 4.9 0.7 74 0.0 33 6   100.36     LegendNANA
17:00 3.6 2.2 91 0.3 33 6   100.33     LegendNANA
18:00 3.5 1.7 88 0.6 31 7   100.32     LegendNANA
19:00 3.7 1.6 86 0.0 33 4   100.29     LegendNANA
20:00 4.1 1.7 84 0.0 36 4   100.25     LegendNANA
21:00 4.0 2.3 89 0.0 34 5   100.22     LegendNANA
22:00 3.7 2.6 93 0.0 32 6   100.15     LegendNANA
23:00 3.5 2.7 94 0.0 36 4   100.07     LegendNANA

Notes on Data Quality.

Legend

  • E = Estimated
  • M = Missing
  • NA = Not Available*
  • [empty] = Indicates an unobserved value
Date modified: